FW9076 Weather Reports


time (UTC)temp
F
wind
direction
speed
knots
gust
knots
rain 1hr
in
rain 24hr
in
rain mn
in
humidity
%
barometer
mb
20260508164543 69 56 0.9 3.5 0.00 0.00 0.00 29 1017.7
20260508163039 68 131 0.9 2.6 0.00 0.00 0.00 32 1017.8
20260508161545 67 109 0.9 3.5 0.00 0.00 0.00 34 1018.0
20260508160036 66 62 0.9 3.5 0.00 0.00 0.00 33 1018.3
20260508154543 65 238 0.9 2.6 0.00 0.00 0.00 33 1018.3
20260508153052 65 185 0.9 2.6 0.00 0.00 0.00 34 1018.5
20260508151543 64 212 0.0 1.7 0.00 0.00 0.00 34 1018.6
20260508150047 63 134 0.0 2.6 0.00 0.00 0.00 43 1018.5
20260508144546 62 122 0.0 1.7 0.00 0.00 0.00 49 1018.6
20260508143044 61 191 0.0 2.6 0.00 0.00 0.00 51 1018.5
20260508141608 60 200 0.0 2.6 0.00 0.00 0.00 58 1018.7
20260508140040 59 228 0.9 2.6 0.00 0.00 0.00 57 1018.7
20260508134555 58 0 0.0 0.9 0.00 0.00 0.00 69 1018.6
20260508133044 55 0 0.0 0.9 0.00 0.00 0.00 77 1018.5
20260508131542 53 0 0.0 0.0 0.00 0.00 0.00 88 1018.4
20260508130042 48 0 0.0 0.0 0.00 0.00 0.00 93 1018.5
20260508124555 46 0 0.0 0.0 0.00 0.00 0.00 95 1018.5
20260508123048 44 0 0.0 0.0 0.00 0.00 0.00 97 1018.5
20260508121544 43 0 0.0 0.0 0.00 0.00 0.00 97 1018.4
20260508120046 41 0 0.0 0.0 0.00 0.00 0.00 97 1018.3
20260508114539 41 0 0.0 0.0 0.00 0.02 0.00 97 1018.2
20260508113048 40 0 0.0 0.0 0.00 0.02 0.00 96 1017.9
20260508111547 40 0 0.0 0.0 0.00 0.02 0.00 96 1017.7
20260508110043 40 0 0.0 0.0 0.00 0.02 0.00 96 1017.6
20260508104544 40 0 0.0 0.0 0.00 0.05 0.00 96 1017.4
20260508103046 40 0 0.0 0.0 0.00 0.05 0.00 95 1016.8
20260508101541 41 0 0.0 0.0 0.00 0.05 0.00 95 1016.7
20260508100040 41 0 0.0 0.0 0.00 0.05 0.00 95 1016.4
20260508094545 42 0 0.0 0.0 0.00 0.05 0.00 95 1016.2
20260508093053 42 0 0.0 0.0 0.00 0.05 0.00 95 1016.2
20260508091550 43 0 0.0 0.9 0.00 0.05 0.00 95 1016.1
20260508090042 43 0 0.0 0.9 0.00 0.05 0.00 95 1016.0
20260508084545 43 0 0.0 0.0 0.00 0.05 0.00 94 1015.8
20260508083105 44 0 0.0 0.0 0.00 0.05 0.00 94 1015.7
20260508081541 44 0 0.0 0.9 0.00 0.05 0.00 94 1015.8
20260508080040 44 0 0.0 0.0 0.00 0.05 0.00 94 1015.7
20260508074550 45 81 0.0 0.9 0.00 0.05 0.00 94 1015.5
20260508073044 45 0 0.0 0.9 0.00 0.05 0.00 93 1015.1
20260508071543 45 0 0.0 0.9 0.00 0.05 0.00 93 1015.1
20260508070046 45 92 0.0 0.9 0.00 0.05 0.00 92 1015.0
20260508064536 46 244 0.0 0.9 0.00 0.05 0.00 93 1015.0
20260508063042 46 0 0.0 0.0 0.00 0.05 0.00 92 1014.9
20260508061543 47 0 0.0 0.9 0.00 0.05 0.00 91 1015.0
20260508060045 47 0 0.0 0.9 0.00 0.05 0.00 91 1014.9
20260508054539 48 360 0.0 0.9 0.00 0.05 0.00 90 1014.9
20260508053045 48 0 0.0 0.9 0.00 0.05 0.00 90 1015.0
20260508051545 48 0 0.9 1.7 0.00 0.05 0.00 90 1014.9
20260508050042 48 88 0.0 0.9 0.00 0.05 0.00 90 1014.8
20260508044541 48 0 0.0 0.9 0.00 0.05 0.00 90 1014.6
20260508043046 49 0 0.0 0.9 0.00 0.05 0.00 90 1014.6
20260508041544 49 345 0.0 0.9 0.00 0.05 0.00 89 1014.4
20260508040050 49 345 0.0 0.9 0.00 0.05 0.00 89 1014.3
20260508034540 49 345 0.0 0.9 0.00 0.05 0.05 88 1014.4
20260508033041 50 345 0.0 0.9 0.00 0.05 0.05 87 1014.4
20260508031555 50 0 0.0 1.7 0.00 0.05 0.05 87 1014.3
20260508030046 50 215 0.9 3.5 0.00 0.05 0.05 87 1014.1
20260508024545 50 0 0.0 0.9 0.00 0.05 0.05 87 1014.0
20260508023040 50 201 0.0 2.6 0.00 0.05 0.05 88 1013.9
20260508021549 50 192 0.0 0.9 0.00 0.05 0.05 87 1013.7
20260508020045 50 332 0.0 0.9 0.00 0.05 0.05 87 1013.6
20260508014543 50 0 0.0 0.0 0.00 0.09 0.05 84 1013.4
20260508013046 51 0 0.0 0.0 0.00 0.09 0.05 82 1013.3
20260508011541 52 0 0.0 0.9 0.00 0.09 0.05 79 1013.0
20260508010039 53 0 0.0 0.9 0.00 0.09 0.05 80 1012.8
20260508004546 54 0 0.0 1.7 0.00 0.09 0.05 77 1012.7
20260508003043 54 0 0.0 0.9 0.00 0.09 0.05 78 1012.6
20260508001542 54 0 0.0 2.6 0.00 0.09 0.05 75 1012.2
20260508000041 55 160 0.0 1.7 0.00 0.09 0.05 75 1012.5
20260507234545 56 0 0.0 0.9 0.00 0.13 0.05 74 1012.7
20260507233045 56 65 0.0 2.6 0.00 0.13 0.05 71 1013.0
20260507231553 57 113 0.0 2.6 0.00 0.13 0.05 74 1012.7
20260507230048 57 0 0.0 3.5 0.00 0.13 0.05 70 1012.3
20260507224540 58 128 0.0 3.5 0.00 0.14 0.05 69 1012.2
20260507223040 59 94 0.0 2.6 0.00 0.14 0.05 72 1012.0
20260507221547 60 0 0.0 1.7 0.00 0.14 0.05 67 1011.6
20260507220046 61 0 0.0 4.3 0.00 0.14 0.05 69 1011.2
20260507214605 62 164 0.0 6.1 0.00 0.14 0.05 72 1011.0
20260507213053 63 0 0.9 7.0 0.00 0.14 0.05 70 1010.8
20260507211540 64 155 0.9 3.5 0.00 0.14 0.05 68 1010.4
20260507210053 65 82 0.9 3.5 0.00 0.14 0.05 67 1010.0
20260507204541 66 34 0.0 2.6 0.00 0.14 0.05 68 1009.9
20260507203050 67 111 0.0 3.5 0.00 0.14 0.05 65 1009.9
20260507201545 69 144 0.0 1.7 0.00 0.14 0.05 65 1009.7
20260507200046 69 145 0.9 4.3 0.00 0.14 0.05 66 1009.6
20260507194614 70 146 0.9 3.5 0.00 0.14 0.05 67 1009.6
20260507193045 70 0 0.0 5.2 0.00 0.14 0.05 63 1009.3
20260507191550 71 159 0.9 2.6 0.00 0.14 0.05 63 1009.4
20260507190044 73 65 0.0 3.5 0.00 0.14 0.05 62 1009.5
20260507184548 73 0 0.9 4.3 0.00 0.14 0.05 70 1009.7
20260507183045 74 134 0.9 2.6 0.00 0.14 0.05 61 1009.6
20260507181547 74 141 0.9 3.5 0.00 0.14 0.05 63 1009.7
20260507180045 74 120 0.9 3.5 0.00 0.14 0.05 74 1009.4
20260507174547 72 91 0.0 2.6 0.00 0.14 0.05 75 1009.4
20260507173044 72 0 0.0 0.9 0.00 0.14 0.05 78 1009.1
20260507171550 71 0 0.0 0.9 0.00 0.14 0.05 83 1009.2
20260507170048 70 0 0.0 0.9 0.00 0.14 0.05 80 1009.3